Hovedside
METAR-TAF:

METAR-TAF

Lufthavner :

Førde, Norge

Førde lufthamn

breddegrad: 61-27N, lengdegrad: 005-52E, høyde over havet: 150 m

Gjeldene værobservasjon

Denne rapporten ble laget for 24 minutter siden, klokken 07:20 UTC
Vind 6 kt fra Sør-sørøst, skiftende mellom Øst og Sørvest
Temperatur 6°C
Luftfuktighet 70%
Trykk 1010 hPa
Sikt 10 km eller mer
Få skyer i en høyde av 1600 ft
Spredte skyer i en høyde av 2200 ft
Brutte skyer i en høyde av 4000 ft
lette regnbyger

METAR: ENBL 240720Z 16006KT 100V230 9999 -SHRA FEW016 SCT022 BKN040 06/01 Q1010

Tid: 09:44 (07:44 UTC)


TAF: fraværende

Værobservasjoner og værvarsel for over 4000 flyplasser (METAR- og TAF-rapporter).

Tilgjengelige stasjoner er representert av de røde og gule prikkene på kartet.

Hold musepekeren over prikken for å se navnet på stasjonen.

Klikk så for å se værobservasjoner og -varsler.

For å forandre kartet kan du klikke på den grønne knappen med svart kryss for å zoome inn, på den grønne knappen med strek for å zoome ut, eller på de grønne pilene for å se tilstøtende kart.


METAR-TAF: